www.pogodaiklimat.ru
ПОГОДА в Форт Мид
Время
и дата
01:29 14.07
01:49 14.07
02:09 14.07
02:29 14.07
02:49 14.07
03:09 14.07
03:29 14.07
03:49 14.07
04:09 14.07
04:29 14.07
04:49 14.07
05:09 14.07
05:29 14.07
05:49 14.07
06:09 14.07
06:29 14.07
06:49 14.07
07:09 14.07
07:29 14.07
07:49 14.07
08:09 14.07
08:29 14.07
08:49 14.07
09:09 14.07
09:29 14.07
09:49 14.07
10:09 14.07
10:29 14.07
10:49 14.07
11:09 14.07
11:29 14.07
11:49 14.07
12:09 14.07
12:29 14.07
12:49 14.07
13:09 14.07
13:29 14.07
13:49 14.07
14:09 14.07
14:29 14.07
14:49 14.07
15:09 14.07
15:29 14.07
15:49 14.07
16:09 14.07
16:29 14.07
16:49 14.07
17:09 14.07
Ветер
(напр.,м/с)
Видим. Явления Облачность Т
(С)
Тd
(С)
f
(%)
Тe
(С)
Тes
(С)
Комфортность P
(гПа)
Po
(гПа)
Тmin
(С)
Tmax
(С)
R
(мм)
R24
(мм)
S
(см)
штиль 0 16 км ясно +22.0 +21.0 94 +28 +28 душно 1013.3
штиль 0 16 км ясно +21.0 +21.0 100 +26 +26 душно 1013.3
штиль 0 16 км ясно +21.0 +21.0 100 +26 +26 душно 1013.3
штиль 0 16 км ясно +21.0 +21.0 100 +26 +26 душно 1013.0
штиль 0 16 км ясно +21.0 +21.0 100 +26 +26 душно 1013.3
штиль 0 16 км ясно +21.0 +21.0 100 +26 +26 душно 1013.3
штиль 0 16 км ясно +21.0 +21.0 100 +26 +26 душно 1013.3
штиль 0 16 км ясно +21.0 +21.0 100 +26 +26 душно 1013.3
штиль 0 16 км ясно +21.0 +20.0 94 +26 +26 душно 1013.0
штиль 0 16 км ясно +21.0 +21.0 100 +26 +26 душно 1013.0
штиль 0 16 км ясно +21.0 +20.0 94 +26 +26 душно 1013.0
штиль 0 16 км ясно +20.0 +20.0 100 +23 +23 комфорт 1013.0
штиль 0 16 км ясно +20.0 +20.0 100 +23 +23 комфорт 1013.0
штиль 0 16 км ясно +21.0 +21.0 100 +26 +26 душно 1013.0
штиль 0 16 км ясно +21.0 +21.0 100 +26 +27 душно 1013.0
штиль 0 16 км ясно +22.0 +21.0 94 +28 +30 душно 1013.0
штиль 0 16 км ясно +23.0 +22.0 94 +31 +32 очень
душно
1013.3
штиль 0 16 км ясно +25.0 +23.0 89 +33 +38 очень
душно
1013.0
штиль 0 16 км ясно +26.0 +23.0 84 +35 +40 очень
душно
1013.0
штиль 0 16 км ясно +27.0 +24.0 84 +37 +42 очень
душно
1013.0
З 2 16 км ясно +28.0 +24.0 79 +39 +46 очень
душно
1013.3
ЮЗ 2 16 км ясно +30.0 +23.0 66 +40 +47 очень
душно
1013.0
ЮЗ 3 16 км ясно +31.0 +23.0 62 +41 +47 опасность
перегрева
1013.0
Ю 2 16 км н/о +31.0 +23.0 62 +41 +41 опасность
перегрева
1013.0
ЮВ 2 16 км н/о +32.0 +22.0 56 +41 +41 опасность
перегрева
1013.0
З 2 16 км н/о +32.0 +22.0 56 +41 +41 опасность
перегрева
1012.6
штиль 0 16 км н/о +32.0 +22.0 56 +41 +41 опасность
перегрева
1012.6
Ю 3 16 км н/о +33.0 +21.0 49 +40 +40 очень
душно
1012.6
ЮВ 2 16 км н/о +33.0 +20.0 46 +39 +39 очень
душно
1012.3
Ю 2 16 км н/о +33.0 +21.0 49 +40 +40 очень
душно
1012.3
штиль 0 16 км н/о +33.0 +21.0 49 +40 +40 очень
душно
1012.0
СЗ 2 16 км н/о +33.0 +20.0 46 +39 +39 очень
душно
1011.6
ЮЗ 2 16 км н/о +35.0 +20.0 42 +41 +41 опасность
перегрева
1011.3
штиль 0 16 км н/о +35.0 +20.0 42 +41 +41 опасность
перегрева
1011.3
З 5 16 км н/о +33.0 +20.0 46 +39 +39 очень
душно
1010.9
В 2 16 км н/о +33.0 +20.0 46 +39 +39 очень
душно
1010.6
З 2 16 км н/о +33.0 +21.0 49 +40 +40 очень
душно
1010.6
З 2 16 км н/о +35.0 +20.0 42 +41 +41 опасность
перегрева
1010.3
штиль 0 16 км н/о +35.0 +19.0 39 +40 +40 очень
душно
1009.9
З 2 16 км н/о +36.0 +19.0 37 +41 +41 опасность
перегрева
1009.6
ЮВ 6
{9}
16 км н/о +32.0 +20.0 49 +38 +38 очень
душно
1009.9
ЮВ 4
{8}
16 км н/о +30.0 +20.0 55 +36 +36 очень
душно
1010.3
ЮВ 4 16 км н/о +30.0 +20.0 55 +36 +36 очень
душно
1009.9
ЮВ 3 16 км н/о +31.0 +20.0 52 +37 +37 очень
душно
1009.6
ЮВ 3 16 км ясно +31.0 +21.0 55 +38 +45 очень
душно
1009.6
ЮВ 3 16 км ясно +32.0 +22.0 56 +41 +48 опасность
перегрева
1009.6
ЮВ 3 16 км ясно +32.0 +21.0 52 +39 +46 очень
душно
1009.6
Ю 3 16 км ясно +31.0 +22.0 59 +40 +43 очень
душно
1009.6
Местоположение метеостанции Tipton Airport: широта 39.0833 долгота -76.7667 высота над уровнем моря 46 м.
В архиве по умолчанию представлена погода в Форт Мид за последние 1-2 суток. Обновление информации о фактической погоде в базе происходит ежечасно! Архивные данные за месяц целиком и за предыдущие месяцы Вы можете получить, выбрав интересующий диапазон дат из раскрывающегося списка и нажав кнопку "Ввод!".
Внимание! Архив погоды МЕТАР в базе сайта по станциям, не включенным в климатический монитор, хранится не более 60 дней. Нет смысла пытаться выбрать более раннюю дату.
*Определитесь, кто Вы:
Внимание! Время в таблицах - местное (без учета летнего времени). Для получения всемирного времени необходимо вычесть поправку, которая равна -5 ч.
Смотрите также архив погоды в соседних городах и на ближайших метеорологических станциях:
Партнеры нашего сайта:      
Пояснения к столбцам:
  • Ветер - указаны скорость ветра в м/с - средняя за 10 мин, порывы в срок и между сроками (в фигурных скобках) и направление, откуда дует ветер: С - северный,
  • СВ - северо-восточный, В - восточный, ЮВ - юго-восточный, Ю - южный, ЮЗ - юго-западный, З - западный, СЗ - северо-западный.
  • Видимость - горизонтальная дальность видимости в метрах или километрах. При видимости от 1 до 10 км при отсутствии осадков обычно наблюдается дымка, при ухудшении видимости до 1 км и менее - туман. В сухую погоду видимость может ухудшаться дымом, пылью или мглою.
  • Явления - указаны атмосферные явления, наблюдавшиеся в срок или в последний час перед сроком; фигурными скобками обозначены явления, наблюдавшиеся между сроками (за 1-3 часа до срока); квадратными скобками обозначены град или гололедные отложения с указанием их диаметра в мм.
  • Облачность - указаны через наклонную черту общая и нижняя облачность в баллах и высота нижней границы облаков в метрах; квадратными скобками обозначены формы облаков: Ci - перистые, Cs - перисто-слоистые, Cc - перисто-кучевые, Ac - высококучевые, As - высокослоистые, Sc - слоисто-кучевые, Ns - слоисто-дождевые, Cu - кучевые, Cb - кучево-дождевые. Подробнее классификацию облаков см. в Атласе облаков (PDF).
  • T - Температура воздуха - температура, измеренная на высоте 2 м над землей.
  • Td - Температура точки росы - температура, при понижении до которой содержащийся в воздухе водяной пар достигнет насыщения.
  • f - Относительная влажность воздуха - влажноcть воздуха, измеренная на высоте 2 м над землей.
  • Te - Эффективная температура - температура, которую ощущает одетый по сезону человек в тени. Характеристика душности погоды. При расчете учитывается влияние влажности воздуха и скорости ветра на теплоощущения человека.
  • Tes - Эффективная температура на солнце - температура, которую ощущает человек, с поправкой на солнечный нагрев. Характеристика знойности погоды. Зависит от высоты солнца над горизонтом, облачности и скорости ветра. Ночью, в пасмурную погоду, а также при ветре 12 м/с и более поправка равна нулю.
  • P - Атмосферное давление - приведенное к уровню моря атмосферное давление.
  • Po - Атмосферное давление - измеренное на уровне метеостанции атмосферное давление.
  • Tmin - Минимальная температура - минимум температуры воздуха на высоте 2 м над землей.
  • Tmax - Максимальная температура - максимум температуры воздуха на высоте 2 м над землей.
  • R - Количество осадков - Количество выпавших осадков за период времени, мм. При наведении курсора мыши на число - период времени, за который выпало указанное количество осадков.
  • R24 - Количество осадков - Количество выпавших осадков за 24 часа, мм.
  • S - Снежный покров - Высота снежного покрова, см. При наведении курсора мыши на число - состояние снежного покрова и степень покрытия местности в баллах.